Find Starlink 6053

NORAD ID: 56466 Int'l Des: 2023-064 Owner: SPXS Country: US Constellation: starlink operational
LEOCIRCULAR

Live Position

Loading 3D Globe...

About Starlink 6053

Description loading...

Upcoming Passes

Passes for default location (London). Set your location on the main map for personalized predictions.

Altitude History

Loading altitude history...

Two-Line Element Set

1 56466U 23064U 26125.79824328 -.00000111 00000-0 -14669-5 0 9997
2 56466 70.0004 0.3328 0003195 270.7029 89.3764 14.98332594163792
Epoch: May 5, 2026 • Age: 16 hours

Current Status

Altitude 594.6 km
Velocity 7.56 km/s
Sub-Earth Point -66.82°S, 148.76°W
Launch Date May 10, 2023
Age 2.9 years
Type internet

Technical Details

Classification Payload
Mass 305.00 kg
Dry Mass 290.00 kg
Total Mass 305.00 kg
Length 0.20 m
Diameter 2.80 m
Span 9.00 m
Shape Box + pan
Manufacturer SPXS
Bus Type Starlink
Phase Status In Orbit
Owner/State SPXS/US

Most Searched